When you browse on this site, cookies collect data to enhance your experience and personalize the content and advertising you see.
Visit our Privacy Policy to learn more. By continuing to use the site, you agree to this use of cookies and data.
  • In Hungary
  • List of Countries
  • For 7 days
  • Water Temperature
  • Satellite Maps
  • Weather Map
  • News
  • Weather Widgets
  • user-avatar
    Login

    Hourly Weather Lesovy

    Today, 24 July, Wednesday

    Time Temperature Precipitation Wind Pressure Humidity
    00:00 +14°C° 0 mm 2 mps 732 mmHg 95%
    01:00 +14°C° 0 mm 2 mps 732 mmHg 96%
    02:00 +13°C° 0 mm 2 mps 732 mmHg 97%
    03:00 +13°C° 0 mm 2 mps 732 mmHg 97%
    04:00 +13°C° 0 mm 2 mps 732 mmHg 97%
    05:00 +13°C° 0 mm 2 mps 732 mmHg 97%
    06:00 +14°C° 0 mm 2 mps 732 mmHg 94%
    07:00 +14°C° 0 mm 3 mps 732 mmHg 91%
    08:00 +17°C° 0 mm 3 mps 732 mmHg 88%
    09:00 +18°C° 0 mm 3 mps 732 mmHg 82%
    10:00 +20°C° 0 mm 3 mps 732 mmHg 77%
    11:00 +21°C° 0 mm 4 mps 732 mmHg 71%
    12:00 +22°C° 0 mm 4 mps 732 mmHg 68%
    13:00 +22°C° 0 mm 3 mps 732 mmHg 66%
    14:00 +24°C° 0 mm 3 mps 732 mmHg 64%
    15:00 +24°C° 0 mm 3 mps 732 mmHg 65%
    16:00 +24°C° 0 mm 3 mps 732 mmHg 66%
    17:00 +24°C° 0 mm 3 mps 732 mmHg 68%
    18:00 +21°C° 0 mm 3 mps 731 mmHg 74%
    19:00 +20°C° 0 mm 2 mps 731 mmHg 81%
    20:00 +18°C° 0 mm 2 mps 731 mmHg 87%
    21:00 +18°C° 0 mm 2 mps 732 mmHg 89%
    22:00 +17°C° 0 mm 2 mps 732 mmHg 91%
    23:00 +16°C° 0 mm 2 mps 732 mmHg 93%

    Tomorrow, 25 July, Thursday

    Time Temperature Precipitation Wind Pressure Humidity
    00:00 +16°C° 0 mm 2 mps 732 mmHg 93%
    01:00 +15°C° 0 mm 2 mps 732 mmHg 94%
    02:00 +15°C° 0 mm 2 mps 732 mmHg 94%
    03:00 +15°C° 0 mm 2 mps 732 mmHg 95%
    04:00 +14°C° 0 mm 2 mps 732 mmHg 95%
    05:00 +14°C° 0 mm 2 mps 732 mmHg 95%
    06:00 +16°C° 0 mm 2 mps 732 mmHg 91%
    07:00 +17°C° 0 mm 2 mps 732 mmHg 88%
    08:00 +19°C° 0 mm 2 mps 733 mmHg 84%
    09:00 +20°C° 0 mm 2 mps 733 mmHg 79%
    10:00 +21°C° 0 mm 2 mps 733 mmHg 74%
    11:00 +24°C° 0 mm 2 mps 733 mmHg 69%
    12:00 +24°C° 0.4 mm 2 mps 733 mmHg 68%
    13:00 +24°C° 0.4 mm 2 mps 732 mmHg 68%
    14:00 +25°C° 0.4 mm 2 mps 732 mmHg 67%
    15:00 +24°C° 0.7 mm 2 mps 731 mmHg 70%
    16:00 +24°C° 0.7 mm 2 mps 731 mmHg 73%
    17:00 +24°C° 0.7 mm 2 mps 731 mmHg 75%
    18:00 +21°C° 0.1 mm 2 mps 731 mmHg 79%
    19:00 +21°C° 0.1 mm 1 mps 730 mmHg 83%
    20:00 +20°C° 0.1 mm 1 mps 730 mmHg 86%
    21:00 +19°C° 0 mm 1 mps 730 mmHg 87%
    22:00 +19°C° 0 mm 1 mps 730 mmHg 87%
    23:00 +18°C° 0 mm 1 mps 730 mmHg 88%

    Day after tomorrow, 26 July, Friday

    Time Temperature Precipitation Wind Pressure Humidity
    00:00 +18°C° 0 mm 1 mps 730 mmHg 89%
    01:00 +16°C° 0 mm 1 mps 730 mmHg 90%
    02:00 +16°C° 0 mm 1 mps 729 mmHg 92%
    03:00 +16°C° 0 mm 1 mps 729 mmHg 93%
    04:00 +15°C° 0 mm 1 mps 729 mmHg 93%
    05:00 +15°C° 0 mm 1 mps 729 mmHg 94%
    06:00 +16°C° 0 mm 2 mps 729 mmHg 91%
    07:00 +18°C° 0 mm 2 mps 729 mmHg 88%
    08:00 +19°C° 0 mm 2 mps 729 mmHg 84%
    09:00 +20°C° 0.2 mm 2 mps 729 mmHg 78%
    10:00 +21°C° 0.2 mm 3 mps 729 mmHg 72%
    11:00 +24°C° 0.2 mm 3 mps 729 mmHg 66%
    12:00 +24°C° 0.3 mm 3 mps 728 mmHg 67%
    13:00 +24°C° 0.3 mm 3 mps 728 mmHg 67%
    14:00 +24°C° 0.3 mm 3 mps 728 mmHg 67%
    15:00 +24°C° 0.1 mm 3 mps 728 mmHg 68%
    16:00 +22°C° 0.1 mm 3 mps 727 mmHg 69%
    17:00 +22°C° 0.1 mm 3 mps 727 mmHg 70%
    18:00 +21°C° 0.1 mm 3 mps 727 mmHg 76%
    19:00 +19°C° 0.1 mm 3 mps 727 mmHg 82%
    20:00 +18°C° 0.1 mm 2 mps 727 mmHg 88%
    21:00 +17°C° 0 mm 2 mps 727 mmHg 89%
    22:00 +16°C° 0 mm 1 mps 727 mmHg 90%
    23:00 +15°C° 0 mm 1 mps 727 mmHg 91%

    27 July, Saturday

    Time Temperature Precipitation Wind Pressure Humidity
    00:00 +15°C° 0 mm 1 mps 727 mmHg 91%
    01:00 +14°C° 0 mm 1 mps 726 mmHg 92%
    02:00 +14°C° 0 mm 1 mps 726 mmHg 93%
    03:00 +14°C° 0 mm 1 mps 726 mmHg 94%
    04:00 +13°C° 0 mm 1 mps 726 mmHg 95%
    05:00 +13°C° 0 mm 1 mps 726 mmHg 96%
    06:00 +14°C° 0 mm 1 mps 726 mmHg 93%
    07:00 +16°C° 0 mm 2 mps 726 mmHg 91%
    08:00 +17°C° 0 mm 2 mps 726 mmHg 89%
    09:00 +18°C° 0.2 mm 2 mps 726 mmHg 87%
    10:00 +19°C° 0.2 mm 3 mps 726 mmHg 85%
    11:00 +20°C° 0.2 mm 3 mps 726 mmHg 83%
    12:00 +20°C° 0.6 mm 3 mps 726 mmHg 81%
    13:00 +21°C° 0.6 mm 4 mps 726 mmHg 80%
    14:00 +21°C° 0.6 mm 4 mps 725 mmHg 78%
    15:00 +21°C° 0.2 mm 4 mps 725 mmHg 78%
    16:00 +21°C° 0.2 mm 3 mps 725 mmHg 77%
    17:00 +21°C° 0.2 mm 3 mps 725 mmHg 77%
    18:00 +20°C° 0.1 mm 3 mps 724 mmHg 82%
    19:00 +19°C° 0.1 mm 2 mps 724 mmHg 88%
    20:00 +17°C° 0.1 mm 2 mps 724 mmHg 93%
    21:00 +18°C° 0 mm 1 mps 724 mmHg 94%
    22:00 +18°C° 0 mm 1 mps 724 mmHg 95%
    23:00 +16°C° 0 mm 1 mps 724 mmHg 95%

    28 July, Sunday

    Time Temperature Precipitation Wind Pressure Humidity
    00:00 +16°C° 0 mm 1 mps 724 mmHg 95%
    01:00 +15°C° 0 mm 0 mps 724 mmHg 95%
    02:00 +15°C° 0 mm 0 mps 724 mmHg 95%
    03:00 +16°C° 0 mm 1 mps 724 mmHg 96%
    04:00 +16°C° 0 mm 1 mps 724 mmHg 96%
    05:00 +16°C° 0 mm 1 mps 724 mmHg 96%
    06:00 +16°C° 0 mm 2 mps 724 mmHg 94%
    07:00 +17°C° 0 mm 2 mps 724 mmHg 92%
    08:00 +18°C° 0 mm 3 mps 724 mmHg 90%
    09:00 +19°C° 0.1 mm 3 mps 725 mmHg 84%
    10:00 +21°C° 0.1 mm 3 mps 725 mmHg 78%
    11:00 +22°C° 0.1 mm 3 mps 725 mmHg 72%
    12:00 +24°C° 0.4 mm 3 mps 725 mmHg 70%
    13:00 +25°C° 0.4 mm 3 mps 725 mmHg 67%
    14:00 +25°C° 0.4 mm 3 mps 725 mmHg 65%
    15:00 +25°C° 0.4 mm 3 mps 725 mmHg 67%
    16:00 +25°C° 0.4 mm 3 mps 725 mmHg 70%
    17:00 +24°C° 0.4 mm 3 mps 725 mmHg 73%
    18:00 +22°C° 0.3 mm 3 mps 725 mmHg 78%
    19:00 +21°C° 0.3 mm 3 mps 725 mmHg 84%
    20:00 +20°C° 0.3 mm 2 mps 725 mmHg 89%
    21:00 +19°C° 0.2 mm 2 mps 725 mmHg 90%
    22:00 +18°C° 0.2 mm 2 mps 725 mmHg 91%
    23:00 +19°C° 0.2 mm 1 mps 725 mmHg 92%

    29 July, Monday

    Time Temperature Precipitation Wind Pressure Humidity
    00:00 +18°C° 0 mm 1 mps 725 mmHg 92%
    01:00 +18°C° 0 mm 1 mps 725 mmHg 93%
    02:00 +18°C° 0 mm 1 mps 725 mmHg 93%
    03:00 +18°C° 0 mm 1 mps 725 mmHg 94%
    04:00 +17°C° 0 mm 2 mps 725 mmHg 95%
    05:00 +16°C° 0 mm 2 mps 726 mmHg 95%
    06:00 +18°C° 0 mm 2 mps 726 mmHg 93%
    07:00 +19°C° 0 mm 2 mps 726 mmHg 91%
    08:00 +20°C° 0 mm 2 mps 726 mmHg 89%
    09:00 +21°C° 0.4 mm 3 mps 726 mmHg 87%
    10:00 +21°C° 0.4 mm 4 mps 727 mmHg 85%
    11:00 +22°C° 0.4 mm 4 mps 727 mmHg 82%
    12:00 +22°C° 0.2 mm 5 mps 727 mmHg 78%
    13:00 +23°C° 0.2 mm 5 mps 727 mmHg 74%
    14:00 +23°C° 0.2 mm 5 mps 727 mmHg 69%
    15:00 +23°C° 0 mm 5 mps 727 mmHg 68%
    16:00 +22°C° 0 mm 5 mps 727 mmHg 67%
    17:00 +22°C° 0 mm 5 mps 727 mmHg 66%
    18:00 +20°C° 0 mm 4 mps 728 mmHg 71%
    19:00 +18°C° 0 mm 4 mps 728 mmHg 75%
    20:00 +17°C° 0 mm 3 mps 728 mmHg 80%
    21:00 +16°C° 0 mm 3 mps 728 mmHg 81%
    22:00 +14°C° 0 mm 3 mps 729 mmHg 83%
    23:00 +13°C° 0 mm 3 mps 729 mmHg 85%
    Show more